Wind_Speed
11 10 10 8 8 8 8 9 10 10 10 10 10 10 10 10 9 9 8 8 7 6 6 5 4 5 5 5 5 5 5 5 4 4 4 4 4 4 5 6 6 6 7
13 11 10 9 9 9 10 10 10 11 10 10 10 10 11 10 10 9 9 8 7 7 6 6 5 5 5 5 5 5 5 4 4 5 5 5 5 5 6 6 6 7 7
13 12 10 10 10 10 10 11 11 11 10 10 10 11 11 11 10 9 9 9 8 8 8 7 6 6 6 6 6 6 5 5 5 6 5 5 6 6 6 6 7 7 8
14 13 11 11 11 11 11 11 11 11 11 11 11 11 11 10 10 10 10 10 9 8 8 8 7 7 7 7 6 6 6 6 6 6 6 6 6 7 7 7 7 7 8
13 13 12 11 12 12 12 12 12 12 12 12 12 11 11 10 10 11 11 10 10 9 8 8 8 7 7 7 7 7 7 7 7 7 7 7 7 7 7 7 7 8 8
13 13 12 12 12 12 12 13 13 13 14 13 13 12 12 12 12 11 11 11 10 10 10 9 8 8 8 7 7 8 7 7 7 8 8 8 8 8 8 8 8 8 9
13 13 13 13 13 13 14 14 15 15 15 15 14 14 13 14 13 13 12 11 11 10 11 10 10 9 9 8 9 9 8 8 9 9 9 9 9 9 9 9 9 9 9
13 13 13 13 14 14 15 15 16 16 16 16 16 15 15 15 14 14 13 12 11 11 11 11 11 10 10 10 10 11 10 10 10 10 10 10 10 10 9 9 10 10 10
14 14 15 15 15 16 16 17 17 17 17 17 16 16 16 16 15 15 14 13 12 12 12 12 12 12 12 12 12 12 12 11 11 11 11 11 11 11 11 11 11 11 11
16 16 16 16 16 17 17 18 18 18 17 17 17 16 17 17 16 16 15 14 13 14 14 13 13 14 13 14 14 13 13 13 13 12 12 13 13 13 13 13 13 12 13
17 17 17 17 17 17 18 18 18 19 19 18 17 16 15 16 16 16 16 16 15 15 15 14 14 15 15 15 15 15 15 14 14 14 14 14 15 14 14 14 14 14 14
17 17 18 18 17 18 18 19 18 18 18 18 17 17 16 16 16 17 16 15 16 16 16 16 16 17 17 17 16 16 16 16 17 16 15 15 15 16 16 16 16 16 16
19 19 19 19 20 20 19 19 19 18 18 18 18 18 18 18 18 17 17 16 17 17 18 18 18 18 18 19 19 18 18 18 18 18 17 17 17 17 17 18 18 18 18
21 21 22 21 21 21 20 19 18 18 18 18 18 19 19 19 19 19 18 17 18 18 19 19 19 19 19 19 20 20 19 19 19 20 19 19 19 19 19 19 19 19 19
22 22 23 22 21 21 20 19 19 19 19 19 19 20 20 20 19 19 18 18 18 18 19 20 20 21 21 21 21 21 21 21 21 20 21 21 21 20 20 20 20 20 20
24 24 23 21 21 21 21 21 20 20 20 20 20 20 20 19 19 19 19 19 19 19 19 20 21 21 21 21 21 21 22 22 22 21 21 22 22 22 22 22 21 21 21
24 24 23 22 22 22 22 22 22 22 21 22 21 22 21 21 21 21 21 20 19 19 20 20 21 20 21 22 23 23 23 23 23 23 22 22 23 23 23 23 22 22 23
24 24 24 23 23 23 23 23 24 24 23 23 23 23 23 22 22 22 22 22 22 22 22 22 22 22 22 23 24 24 24 24 24 24 24 24 23 23 24 24 24 24 25
24 24 24 24 25 25 25 25 25 24 24 23 24 23 23 23 23 23 24 24 23 23 23 23 23 23 23 24 24 24 24 24 24 24 25 25 24 24 24 25 25 25 26
24 24 25 25 26 26 26 26 26 25 25 25 25 25 25 25 24 24 25 25 25 24 24 24 24 25 24 24 24 24 24 24 24 25 25 25 25 26 26 26 26 26 26
26 26 25 24 25 27 27 27 27 27 27 26 26 26 26 25 25 25 25 26 26 26 26 26 25 25 25 25 25 24 25 25 25 26 26 26 26 27 27 27 27 27 28
27 27 27 26 26 27 27 28 28 28 28 27 27 26 26 26 26 27 27 27 27 27 27 27 26 26 26 26 25 25 26 26 26 26 26 26 26 27 28 28 28 28 29
28 28 28 28 28 28 28 28 28 28 29 28 28 28 27 27 28 28 28 28 28 27 27 27 27 27 26 26 26 26 26 26 27 27 27 27 27 27 28 28 28 29 29
28 29 29 29 29 29 29 28 28 28 28 28 28 28 28 28 28 28 27 28 29 28 27 27 28 28 27 26 27 27 27 27 27 27 27 28 28 28 29 29 29 30 30
27 28 28 28 28 28 28 28 27 27 27 27 28 27 27 27 26 26 26 27 27 27 27 28 28 28 28 27 27 28 28 28 28 29 29 29 29 29 29 30 30 30 30
27 27 27 27 27 27 27 27 26 26 26 26 25 25 26 25 25 25 25 26 26 27 28 28 28 28 28 28 28 28 29 29 29 30 30 30 30 30 29 30 30 30 30
Wind_Direction
300 302 302 300 301 305 310 314 319 318 317 320 325 326 328 329 325 320 317 317 314 309 312 315 306 300 298 297 295 293 291 291 287 287 289 295 293 289 284 281 275 268 267
296 296 294 290 294 301 304 305 311 313 312 312 317 322 321 324 325 319 315 311 307 303 303 303 301 298 299 297 297 298 296 288 284 289 286 283 288 290 288 280 280 277 276
288 287 283 285 289 295 299 302 303 303 303 304 308 313 317 319 322 323 319 314 307 302 297 297 292 290 290 292 291 292 290 284 281 284 283 280 288 285 286 283 284 278 275
282 282 277 277 280 286 292 294 295 297 297 296 299 304 308 311 313 314 314 313 308 300 295 294 292 289 287 287 289 292 282 279 278 279 279 278 282 288 291 289 288 284 279
279 276 273 273 276 281 285 290 292 291 291 291 292 296 300 302 302 305 305 304 301 299 293 290 289 287 282 281 286 285 277 274 272 272 271 272 279 286 288 290 288 282 279
272 273 274 273 275 279 282 286 287 287 288 289 290 292 294 295 295 298 299 299 295 290 288 287 286 284 279 277 283 283 279 275 271 270 271 274 276 280 282 284 285 284 283
267 268 272 272 275 277 279 282 284 287 287 287 287 287 289 290 289 290 291 291 292 291 288 286 285 283 278 278 278 279 278 274 269 270 270 272 273 276 280 280 281 284 286
261 266 272 271 273 276 279 286 288 286 285 283 285 287 287 289 288 287 287 284 283 287 286 283 281 279 279 279 278 279 278 276 272 271 270 271 274 276 280 280 281 284 284
262 268 271 271 273 276 280 283 287 287 285 282 284 289 287 286 288 287 286 280 276 277 278 278 277 275 275 278 280 279 278 274 273 272 269 273 276 276 276 280 280 281 282
268 271 271 272 275 277 280 283 284 283 281 282 283 289 286 284 285 285 286 284 278 278 278 277 276 273 271 275 279 281 279 275 275 271 271 276 276 275 275 276 275 276 281
272 275 274 272 278 282 286 286 287 284 279 281 284 289 290 284 282 283 284 282 279 278 278 278 278 274 272 273 277 279 277 277 278 279 275 274 275 275 274 274 273 274 276
274 276 275 274 276 281 283 284 286 288 285 283 283 287 288 288 287 286 286 282 278 276 275 276 275 274 274 275 276 277 277 276 276 277 276 272 272 274 276 274 274 274 274
274 275 274 273 275 279 281 284 286 288 290 288 285 285 285 285 285 284 286 284 281 279 277 276 275 273 273 274 275 275 276 275 274 275 275 273 273 273 275 274 273 273 273
274 275 272 271 274 277 280 283 284 287 287 288 286 284 283 283 283 283 283 281 280 280 278 275 274 272 272 272 272 274 274 275 274 274 275 275 272 272 273 273 273 274 273
273 276 274 271 273 275 278 281 284 285 285 285 287 285 283 281 279 280 283 281 278 279 279 276 275 271 269 270 271 271 272 273 274 274 274 274 273 273 273 272 272 272 272
271 274 274 272 272 275 279 280 283 285 283 282 283 284 282 279 279 280 282 281 280 280 280 278 274 270 269 269 270 271 271 271 272 272 273 273 272 273 274 274 272 271 271
271 271 270 269 271 275 277 278 282 284 283 281 281 281 280 276 276 278 280 281 282 283 284 280 277 273 271 270 271 271 272 271 271 271 271 273 274 274 272 272 272 272 272
269 270 271 272 272 275 277 279 281 281 281 279 279 280 279 277 277 277 278 279 281 281 281 280 277 273 273 272 271 271 271 270 271 271 271 273 273 274 272 271 272 272 273
270 270 271 273 274 276 278 280 281 279 277 276 277 277 275 275 277 277 276 277 279 279 280 278 275 274 274 273 271 270 269 271 272 271 272 273 273 273 273 272 272 273 274
272 271 272 274 275 276 276 278 278 278 276 276 276 276 276 275 275 274 275 276 276 277 278 277 277 275 274 272 271 270 269 272 274 272 271 272 273 275 276 274 273 273 275
274 274 274 276 278 276 276 277 277 277 276 275 275 275 275 274 272 272 274 275 275 275 275 275 275 274 273 271 270 271 273 273 273 273 272 272 274 275 277 275 274 274 274
277 277 276 277 278 278 278 278 277 279 278 276 277 276 276 274 274 275 275 275 275 276 275 273 273 274 274 272 271 272 273 273 273 273 273 273 275 276 277 277 276 275 275
277 278 277 277 278 279 278 279 279 279 279 277 277 278 277 276 276 277 276 275 275 275 274 272 273 275 275 273 272 273 273 274 273 273 274 276 278 279 279 279 278 278 277
278 279 279 278 278 278 279 279 279 280 280 278 278 280 278 276 275 275 275 275 274 274 273 273 273 275 275 274 273 272 273 274 274 273 274 275 277 279 278 278 279 280 280
281 281 279 278 278 279 280 279 280 281 281 279 279 279 279 278 276 276 276 275 273 274 275 276 275 275 275 275 274 273 274 274 273 273 273 275 278 279 279 280 279 279 280
281 281 280 278 277 278 278 278 280 281 281 281 280 278 279 279 276 276 276 276 275 275 277 278 277 276 276 276 276 275 275 274 273 273 273 276 277 278 278 279 280 280 279
Height
5875 5875 5874 5873 5872 5872 5871 5870 5870 5869 5868 5867 5865 5864 5863 5861 5860 5858 5857 5856 5855 5854 5853 5852 5851 5851 5851 5850 5850 5850 5849 5849 5849 5849 5849 5849 5848 5848 5848 5848 5848 5849 5849
5873 5872 5872 5871 5871 5870 5870 5869 5868 5867 5866 5865 5864 5862 5861 5860 5858 5857 5855 5854 5853 5852 5851 5850 5850 5849 5849 5849 5848 5848 5848 5848 5847 5847 5847 5848 5848 5847 5847 5847 5847 5847 5847
5870 5869 5869 5869 5869 5868 5867 5867 5866 5865 5864 5863 5861 5860 5859 5858 5856 5855 5854 5852 5851 5850 5849 5849 5848 5848 5848 5847 5847 5846 5846 5846 5846 5846 5846 5846 5846 5846 5846 5846 5845 5845 5845
5866 5866 5866 5865 5866 5866 5865 5864 5863 5862 5861 5860 5859 5857 5856 5855 5854 5853 5852 5850 5849 5848 5847 5846 5846 5846 5846 5845 5845 5844 5844 5844 5844 5844 5844 5844 5845 5845 5845 5844 5844 5843 5843
5863 5863 5863 5863 5863 5863 5862 5861 5860 5859 5858 5857 5856 5855 5854 5853 5852 5850 5849 5848 5847 5846 5845 5844 5844 5844 5843 5843 5843 5842 5842 5842 5842 5842 5842 5842 5842 5843 5843 5843 5842 5842 5841
5860 5860 5860 5860 5860 5860 5859 5858 5857 5857 5855 5854 5853 5852 5851 5850 5849 5848 5846 5845 5844 5843 5843 5842 5842 5841 5841 5841 5841 5840 5840 5840 5840 5840 5840 5840 5840 5840 5840 5840 5840 5840 5839
5857 5857 5857 5857 5857 5857 5856 5855 5854 5854 5852 5851 5849 5848 5848 5847 5846 5845 5843 5842 5841 5841 5840 5840 5839 5839 5839 5839 5838 5838 5838 5837 5838 5838 5838 5838 5838 5838 5838 5838 5838 5838 5837
5854 5854 5854 5854 5854 5853 5853 5852 5851 5850 5849 5847 5846 5845 5845 5844 5843 5841 5840 5839 5838 5838 5837 5837 5837 5837 5836 5836 5836 5836 5835 5835 5835 5835 5835 5835 5835 5835 5835 5835 5835 5835 5835
5851 5851 5850 5850 5850 5850 5849 5848 5847 5846 5844 5843 5842 5842 5841 5840 5839 5838 5836 5836 5835 5835 5834 5834 5834 5834 5834 5834 5833 5833 5832 5832 5832 5832 5832 5832 5832 5832 5832 5832 5832 5832 5832
5848 5847 5847 5846 5846 5846 5845 5844 5843 5841 5841 5840 5838 5838 5837 5836 5835 5833 5833 5832 5832 5831 5831 5830 5831 5830 5830 5830 5830 5830 5829 5829 5829 5829 5829 5829 5829 5829 5829 5829 5829 5828 5828
5844 5843 5843 5842 5842 5841 5840 5839 5838 5837 5836 5835 5835 5834 5833 5832 5830 5830 5829 5829 5828 5828 5827 5827 5826 5826 5827 5827 5826 5826 5826 5826 5826 5825 5825 5825 5825 5825 5825 5825 5825 5825 5825
5839 5839 5838 5838 5838 5837 5836 5835 5834 5833 5832 5831 5830 5829 5829 5827 5826 5826 5825 5824 5824 5823 5823 5823 5822 5822 5823 5822 5822 5822 5822 5822 5822 5821 5821 5821 5821 5821 5821 5821 5821 5821 5820
5834 5834 5833 5833 5833 5832 5831 5830 5829 5828 5828 5827 5826 5825 5824 5823 5822 5821 5821 5820 5819 5819 5818 5818 5818 5818 5818 5818 5818 5818 5818 5817 5817 5817 5817 5817 5817 5817 5817 5817 5816 5816 5816
5828 5828 5828 5828 5827 5827 5826 5825 5824 5824 5823 5822 5821 5820 5819 5818 5818 5817 5816 5815 5815 5814 5813 5813 5813 5813 5813 5813 5813 5812 5812 5812 5812 5812 5812 5812 5812 5812 5812 5811 5811 5811 5811
5823 5822 5822 5822 5821 5821 5820 5820 5819 5818 5818 5817 5816 5815 5814 5813 5812 5812 5811 5810 5810 5809 5808 5808 5807 5807 5807 5807 5807 5807 5807 5807 5807 5807 5807 5807 5807 5806 5806 5806 5806 5805 5805
5816 5816 5816 5816 5816 5815 5815 5814 5813 5812 5812 5811 5811 5810 5809 5808 5807 5807 5806 5806 5804 5803 5802 5801 5801 5801 5801 5801 5801 5801 5801 5801 5801 5801 5801 5801 5801 5800 5800 5800 5800 5799 5799
5810 5809 5809 5809 5809 5809 5809 5808 5807 5807 5806 5805 5804 5804 5803 5802 5801 5801 5801 5800 5799 5798 5796 5795 5795 5795 5795 5795 5794 5795 5795 5795 5795 5795 5795 5795 5794 5794 5794 5793 5793 5793 5793
5804 5803 5803 5803 5802 5802 5802 5801 5801 5800 5799 5799 5798 5797 5797 5796 5795 5795 5794 5794 5793 5792 5791 5790 5789 5789 5789 5788 5788 5788 5788 5788 5788 5788 5788 5788 5788 5787 5787 5787 5786 5786 5786
5797 5797 5797 5796 5796 5796 5795 5795 5795 5794 5793 5792 5791 5791 5790 5790 5789 5788 5787 5787 5786 5785 5784 5784 5783 5782 5782 5782 5781 5781 5781 5781 5781 5781 5781 5781 5781 5781 5780 5780 5779 5779 5779
5791 5791 5790 5790 5789 5789 5788 5788 5787 5787 5786 5786 5785 5784 5783 5783 5782 5781 5780 5779 5778 5778 5777 5777 5776 5775 5775 5774 5774 5774 5774 5774 5774 5774 5774 5774 5774 5773 5773 5772 5772 5772 5771
5783 5783 5783 5783 5782 5781 5781 5780 5780 5779 5779 5778 5777 5777 5776 5775 5774 5774 5773 5772 5771 5771 5770 5770 5769 5768 5767 5767 5767 5767 5766 5767 5767 5767 5767 5767 5766 5766 5765 5764 5764 5764 5763
5776 5776 5775 5775 5775 5774 5773 5772 5772 5772 5771 5771 5770 5769 5768 5768 5767 5766 5765 5764 5763 5763 5762 5761 5761 5760 5759 5759 5759 5759 5759 5759 5759 5759 5759 5759 5758 5758 5757 5756 5755 5755 5755
5769 5768 5768 5768 5767 5766 5765 5765 5764 5764 5763 5762 5762 5761 5760 5759 5759 5758 5756 5756 5755 5754 5754 5753 5752 5752 5751 5751 5751 5751 5751 5750 5751 5750 5750 5750 5750 5749 5748 5747 5746 5745 5745
5761 5761 5760 5760 5759 5758 5757 5757 5756 5755 5755 5754 5753 5752 5751 5750 5750 5749 5748 5747 5746 5746 5745 5745 5744 5744 5743 5742 5742 5742 5742 5742 5742 5742 5742 5741 5741 5740 5739 5738 5737 5736 5735
5754 5753 5752 5752 5751 5750 5750 5749 5748 5747 5746 5745 5745 5744 5743 5742 5741 5740 5739 5738 5738 5737 5737 5736 5735 5735 5734 5734 5733 5733 5733 5733 5733 5733 5732 5732 5732 5731 5730 5729 5728 5727 5726
5746 5745 5745 5744 5743 5743 5742 5741 5740 5740 5739 5738 5736 5736 5735 5734 5733 5732 5731 5730 5730 5729 5728 5727 5726 5726 5726 5725 5725 5724 5724 5723 5723 5723 5723 5723 5723 5722 5721 5720 5719 5718 5717